CAPE
5 1 0 0 0 0 0 0 0 0 0 0 0 0 0 0 0 0 0 0 0 0 0 0 0 0 0 0 0 0 0 0 0 0 0 0 0 0 0 0 0 0 0 0
7 4 0 0 0 0 0 0 0 0 0 0 0 0 0 0 0 0 0 0 0 0 0 0 0 0 0 0 0 0 0 0 0 0 0 0 0 0 0 0 0 0 0 0
2 3 10 0 2 1 0 0 0 0 0 0 0 0 0 0 0 0 0 0 0 0 0 0 0 0 0 0 0 0 0 0 0 0 0 0 0 0 0 0 0 0 0 0
16 0 21 11 2 4 2 0 0 0 0 0 0 0 0 0 0 0 0 0 0 0 0 0 0 0 0 0 0 0 0 0 0 0 0 0 0 0 0 0 0 0 0 0
1 1 6 14 3 0 3 0 0 0 0 0 0 0 0 0 0 0 0 0 0 0 0 0 0 0 0 0 0 0 0 0 0 0 0 0 0 0 0 0 0 0 0 0
0 0 3 15 4 0 0 0 0 0 1 0 0 0 0 0 0 0 0 0 0 0 0 0 0 0 0 0 0 0 0 0 0 0 0 0 0 0 0 0 0 0 0 0
1 0 0 0 1 0 1 0 0 0 0 0 0 0 0 0 0 0 0 0 0 0 0 0 0 0 0 0 0 0 0 0 0 0 0 0 0 0 0 0 0 0 0 0
0 0 0 0 0 1 3 0 0 0 0 0 0 0 0 0 0 0 0 0 0 0 0 0 0 0 0 0 0 0 0 0 0 0 0 0 0 0 0 0 0 0 0 0
2 1 0 0 0 0 0 0 0 0 0 0 0 0 0 0 0 0 0 0 0 0 0 0 0 0 0 0 0 0 0 0 0 0 0 0 0 0 0 0 0 0 0 0
0 0 0 0 0 0 0 0 0 0 0 0 0 0 0 0 0 0 0 0 0 0 0 0 0 0 0 0 0 0 0 0 0 0 0 0 0 0 0 0 0 0 0 0
0 0 0 4 0 0 0 0 0 0 0 0 0 0 0 0 0 0 0 0 0 0 0 0 0 0 0 0 0 0 0 0 0 0 0 0 0 0 0 0 0 0 0 0
0 0 0 0 0 0 0 0 0 0 0 0 0 0 0 0 0 0 0 0 0 0 0 0 0 0 0 0 0 0 0 0 0 0 0 0 0 0 0 0 0 0 0 0
0 0 0 1 0 0 0 0 0 0 0 0 0 0 0 0 0 0 0 0 0 0 0 0 0 0 0 0 0 0 0 0 0 0 0 0 0 0 0 0 0 0 0 0
0 0 0 0 0 0 0 0 0 0 0 0 0 0 0 0 0 0 0 0 0 0 0 0 0 0 0 0 0 0 0 0 0 0 0 0 0 0 0 0 0 0 0 0
0 0 0 0 0 0 0 0 0 0 0 0 0 0 0 0 0 0 0 0 0 0 0 0 0 0 0 0 0 0 0 0 0 0 0 0 0 0 0 0 0 0 0 0
3 1 0 0 0 0 0 0 0 0 0 0 0 0 0 0 0 0 0 0 0 0 0 0 0 0 0 0 0 0 0 0 0 0 0 0 0 0 0 0 0 0 0 0
0 0 0 0 0 0 0 0 0 0 0 0 1 0 0 0 0 0 0 0 0 0 0 0 0 0 0 0 0 0 0 0 0 0 0 0 0 0 0 0 0 0 0 0
0 0 0 0 0 0 0 0 0 0 0 0 0 0 0 0 0 0 0 0 0 0 0 0 0 0 0 0 0 0 0 0 0 0 0 0 0 0 0 0 0 0 0 0
0 0 0 0 0 0 0 0 0 0 0 0 0 0 0 0 0 0 0 0 0 0 0 0 0 0 0 0 0 0 0 0 0 0 0 0 0 0 0 0 0 0 0 0
0 0 0 0 0 0 0 0 0 0 0 0 0 0 0 0 0 0 0 0 0 0 0 0 0 0 0 0 0 0 0 0 0 0 0 0 0 0 0 0 0 0 0 0
0 0 0 0 0 0 0 0 0 0 0 0 0 0 0 0 0 0 0 0 0 0 0 0 0 0 0 0 0 0 0 0 0 0 0 0 0 0 0 0 0 0 0 0
0 0 0 0 0 0 0 0 0 0 0 0 0 0 0 0 0 0 0 0 0 0 0 0 0 0 0 0 0 0 0 0 0 0 0 0 0 0 0 0 0 0 0 0
0 0 0 0 0 0 0 0 0 0 0 0 0 0 0 0 0 0 0 0 0 0 0 0 0 0 0 0 0 0 0 0 0 0 0 0 0 0 0 0 0 0 0 0
0 0 0 0 0 0 0 0 0 0 0 0 0 0 0 0 0 0 0 0 0 0 0 0 0 0 0 0 0 0 0 0 0 0 0 0 0 0 0 0 0 1 3 3
0 0 0 0 0 0 0 0 0 0 0 0 0 0 0 0 0 0 0 0 0 0 0 0 0 0 0 0 0 0 0 0 0 0 0 0 0 0 0 0 0 3 4 4
0 0 0 0 0 0 0 0 0 0 0 0 0 0 0 0 0 0 0 0 0 0 0 0 0 0 0 0 0 0 0 0 0 0 0 0 0 0 0 0 0 0 2 5
CIN
0 0 0 0 0 0 0 0 0 0 0 0 0 0 0 0 0 0 0 0 0 0 0 0 0 0 0 0 0 0 0 0 0 0 0 0 0 0 0 0 0 0 0 0
0 0 0 0 0 0 0 0 0 0 0 0 0 0 0 0 0 0 0 0 0 0 0 0 0 0 0 0 0 0 0 0 0 0 0 0 0 0 0 0 0 0 0 0
0 -1 -2 -6 0 0 0 0 0 0 0 0 0 0 0 0 0 0 0 0 0 0 0 0 0 0 0 0 0 0 0 0 0 0 0 0 0 0 0 0 0 0 0 0
-1 0 0 0 -2 -2 -1 0 0 0 0 0 0 0 0 0 0 0 0 0 0 0 0 0 0 0 0 0 0 0 0 0 0 0 0 0 0 0 0 0 0 0 0 0
0 0 0 0 0 0 0 0 0 0 0 0 0 0 0 0 0 0 0 0 0 0 0 0 0 0 0 0 0 0 0 0 0 0 0 0 0 0 0 0 0 0 0 0
0 0 -2 -4 -5 0 0 0 0 0 0 0 0 0 0 0 0 0 0 0 0 0 0 0 0 0 0 0 0 0 0 0 0 0 0 0 0 0 0 0 0 0 0 0
0 0 0 0 0 0 0 0 0 0 0 0 0 0 0 0 0 0 0 0 0 0 0 0 0 0 0 0 0 0 0 0 0 0 0 0 0 0 0 0 0 0 0 0
0 0 0 0 0 0 0 0 0 0 0 0 0 0 0 0 0 0 0 0 0 0 0 0 0 0 0 0 0 0 0 0 0 0 0 0 0 0 0 0 0 0 0 0
0 0 0 0 0 0 0 0 0 0 0 0 0 0 0 0 0 0 0 0 0 0 0 0 0 0 0 0 0 0 0 0 0 0 0 0 0 0 0 0 0 0 0 0
0 0 0 0 0 0 0 0 0 0 0 0 0 0 0 0 0 0 0 0 0 0 0 0 0 0 0 0 0 0 0 0 0 0 0 0 0 0 0 0 0 0 0 0
0 0 0 0 0 0 0 0 0 0 0 0 0 0 0 0 0 0 0 0 0 0 0 0 0 0 0 0 0 0 0 0 0 0 0 0 0 0 0 0 0 0 0 0
0 0 0 0 0 0 0 0 0 0 0 0 0 0 0 0 0 0 0 0 0 0 0 0 0 0 0 0 0 0 0 0 0 0 0 0 0 0 0 0 0 0 0 0
0 0 0 -1 0 0 0 0 0 0 0 0 0 0 0 0 0 0 0 0 0 0 0 0 0 0 0 0 0 0 0 0 0 0 0 0 0 0 0 0 0 0 0 0
0 0 0 0 0 0 0 0 0 0 0 0 0 0 0 0 0 0 0 0 0 0 0 0 0 0 0 0 0 0 0 0 0 0 0 0 0 0 0 0 0 0 0 0
0 0 0 0 0 0 0 0 0 0 0 0 0 0 0 0 0 0 0 0 0 0 0 0 0 0 0 0 0 0 0 0 0 0 0 0 0 0 0 0 0 0 0 0
0 0 0 0 0 0 0 0 0 0 0 0 0 0 0 0 0 0 0 0 0 0 0 0 0 0 0 0 0 0 0 0 0 0 0 0 0 0 0 0 0 0 0 0
0 0 0 0 0 0 0 0 0 0 0 0 -86 0 0 0 0 0 0 0 0 0 0 0 0 0 0 0 0 0 0 0 0 0 0 0 0 0 0 0 0 0 0 0
0 0 0 0 0 0 0 0 0 0 0 0 0 0 0 0 0 0 0 0 0 0 0 0 0 0 0 0 0 0 0 0 0 0 0 0 0 0 0 0 0 0 0 0
0 0 0 0 0 0 0 0 0 0 0 0 0 0 0 0 0 0 0 0 0 0 0 0 0 0 0 0 0 0 0 0 0 0 0 0 0 0 0 0 0 0 0 0
0 0 0 0 0 0 0 0 0 0 0 0 0 0 0 0 0 0 0 0 0 0 0 0 0 0 0 0 0 0 0 0 0 0 0 0 0 0 0 0 0 0 0 0
0 0 0 0 0 0 0 0 0 0 0 0 0 0 0 0 0 0 0 0 0 0 0 0 0 0 0 0 0 0 0 0 0 0 0 0 0 0 0 0 0 0 0 0
0 0 0 0 0 0 0 0 0 0 0 0 0 0 0 0 0 0 0 0 0 0 0 0 0 0 0 0 0 0 0 0 0 0 0 0 0 0 0 0 0 0 0 0
0 0 0 0 0 0 0 0 0 0 0 0 0 0 0 0 0 0 0 0 0 0 0 0 0 0 0 0 0 0 0 0 0 0 0 0 0 0 0 0 0 0 -1 0
0 0 0 0 0 0 0 0 0 0 0 0 0 0 0 0 0 0 0 0 0 0 0 0 0 0 0 0 0 0 0 0 0 0 0 0 0 0 0 0 0 0 0 0
0 0 0 0 0 0 0 0 0 0 0 0 0 0 0 0 0 0 0 0 0 0 0 0 0 0 0 0 0 0 0 0 0 0 0 0 0 0 0 0 0 0 0 0
0 0 0 0 0 0 0 0 0 0 0 0 0 0 0 0 0 0 0 0 0 0 0 0 0 0 0 0 0 0 0 0 0 0 0 0 0 0 0 0 0 0 0 0
Wind_Speed
2 3 7 8 2 4 14 9 6 1 4 2 4 1 4 5 2 6 7 8 9 11 11 8 8 9 8 6 7 8 8 8 5 2 3 2 4 4 4 5 7 7 6 7
2 4 5 7 7 2 15 15 8 2 2 1 5 4 4 3 3 5 7 8 9 5 5 5 7 6 6 6 8 7 7 6 5 3 2 3 3 3 2 1 5 6 6 6
7 4 9 8 8 7 3 15 11 6 3 2 5 5 3 1 2 3 4 3 2 2 3 5 7 6 6 7 6 4 2 1 2 4 1 1 2 1 2 2 3 5 6 6
4 5 13 10 8 10 5 2 11 7 8 4 3 4 4 2 4 4 2 4 6 6 6 7 7 6 7 6 6 7 6 6 4 1 2 4 3 4 3 2 2 5 5 6
3 8 9 14 8 10 3 7 7 5 5 4 0 1 5 3 5 5 10 6 7 9 6 7 7 7 6 6 7 6 7 6 6 6 4 2 4 2 3 3 6 5 5 6
2 3 4 3 13 9 15 12 12 7 2 3 6 6 4 6 6 2 3 7 5 5 8 8 6 6 6 6 7 7 9 7 8 7 7 5 6 6 4 4 5 5 4 4
3 2 2 6 11 15 12 9 4 2 3 4 4 6 6 4 11 12 11 3 6 6 6 7 8 6 6 6 8 6 7 7 7 8 8 7 6 6 6 6 5 6 4 4
5 3 3 3 3 7 15 4 5 7 6 4 4 5 2 2 4 11 11 12 10 6 4 7 7 7 7 9 9 8 9 8 8 7 7 6 5 3 4 5 5 4 5 6
4 2 5 1 4 11 6 5 4 7 2 4 4 3 2 4 7 9 8 8 7 8 6 6 9 8 7 7 6 5 6 6 7 7 6 6 6 6 6 7 5 4 5 5
5 4 2 4 4 6 4 6 3 3 4 2 2 1 4 4 7 10 10 7 6 6 9 8 8 7 6 7 5 8 8 7 7 8 6 6 6 6 6 5 7 7 6 5
4 2 2 1 3 6 3 2 4 5 4 5 5 4 4 7 7 12 9 8 7 9 8 7 7 6 6 8 10 11 12 11 11 9 7 7 7 6 6 6 6 7 6 7
2 3 3 5 4 3 3 5 4 4 3 0 2 2 4 8 6 7 8 10 10 8 7 7 7 6 8 8 9 8 7 7 9 8 8 8 8 8 7 8 8 7 8 7
3 1 5 2 5 4 5 2 3 5 3 3 5 4 4 5 6 6 11 10 8 7 7 6 7 8 7 6 5 5 5 7 9 8 8 10 10 10 10 10 9 9 9 10
3 3 5 7 4 7 7 5 4 5 4 3 4 7 5 6 7 7 9 7 7 7 7 6 5 3 3 4 6 7 9 10 11 11 11 10 11 11 11 11 11 10 10 11
3 4 2 4 3 2 11 13 8 3 5 6 5 13 7 5 8 7 7 6 7 6 5 3 4 7 9 12 12 12 13 13 13 12 12 12 12 12 12 13 13 13 11 11
2 3 2 6 8 3 3 6 8 3 4 5 8 5 3 6 6 7 6 6 5 5 7 9 10 11 13 14 13 12 12 11 10 10 10 10 11 11 11 12 13 12 12 12
2 4 3 0 4 3 2 6 6 5 3 6 4 5 6 6 7 7 6 7 7 6 7 8 8 8 9 10 9 10 10 9 9 8 8 8 8 10 11 12 12 14 15 14
4 3 3 2 3 1 3 4 3 8 5 7 10 7 6 7 7 8 6 6 6 6 7 7 6 7 7 6 8 9 9 8 9 8 10 11 12 14 14 14 14 14 14 14
2 4 5 3 3 5 1 3 5 7 2 3 10 6 7 11 5 4 4 5 6 6 5 5 5 5 6 7 8 7 7 6 6 10 12 14 14 14 15 15 15 14 15 15
6 8 4 3 5 6 2 1 2 2 1 5 9 7 9 7 3 3 3 4 6 6 4 5 6 4 6 6 6 6 7 8 10 12 13 13 13 14 15 14 15 14 14 16
5 5 5 2 1 9 8 5 2 7 4 6 6 7 6 4 4 5 4 6 5 5 6 6 6 4 5 6 5 7 7 9 11 11 12 12 13 14 14 15 14 15 15 15
6 5 3 3 4 6 5 1 5 2 4 6 5 4 5 6 5 4 6 6 6 5 3 4 4 4 4 4 6 8 9 11 11 12 13 13 13 12 12 15 14 15 15 16
2 6 5 7 6 3 2 2 2 4 6 4 7 5 6 5 3 4 3 4 2 1 2 3 5 6 3 6 8 9 11 12 13 13 12 12 13 12 12 14 15 13 13 13
4 4 1 2 2 6 4 3 4 3 5 6 5 5 5 7 6 5 5 3 1 1 3 3 5 7 11 11 11 9 10 10 10 11 12 11 12 12 12 10 10 10 11 12
5 5 6 4 6 3 6 6 7 7 7 7 5 5 6 7 5 4 3 2 2 4 5 3 9 8 9 10 10 10 10 9 11 11 11 11 10 11 12 10 10 10 11 13
7 9 7 7 7 5 3 6 7 8 7 8 8 5 3 4 5 3 3 3 3 5 8 8 8 7 8 8 8 9 8 9 9 11 9 9 9 10 10 11 12 15 21 25
Wind_Direction
197 158 193 184 211 302 153 161 139 55 349 297 340 238 307 331 250 189 208 196 202 207 214 200 195 195 197 194 188 197 187 207 156 168 169 193 217 222 229 221 234 237 235 234
139 230 181 143 128 121 178 155 167 97 312 162 358 301 289 306 245 211 201 206 209 203 181 186 199 197 194 189 203 208 205 197 187 160 192 183 180 221 232 226 246 239 240 248
180 161 143 146 156 146 199 183 169 166 132 42 340 329 359 304 235 188 248 164 132 203 111 34 48 40 57 51 22 40 34 218 218 208 148 51 18 343 314 258 264 253 229 228
215 146 169 156 157 178 175 179 180 141 161 194 336 232 304 309 330 353 253 52 64 64 80 78 62 54 53 50 53 65 58 45 34 59 219 223 220 246 249 252 270 277 238 243
150 158 184 173 175 136 141 109 110 127 104 126 280 58 276 35 313 40 356 112 86 78 58 72 66 70 49 37 36 30 27 21 5 1 357 316 294 295 305 310 308 306 289 268
92 26 167 149 151 145 121 93 59 43 62 214 184 170 254 194 221 71 18 355 5 108 99 86 61 51 51 33 32 24 19 11 10 6 354 340 308 311 312 309 297 298 301 281
69 19 269 162 111 130 132 137 107 121 193 217 157 145 254 198 180 213 176 95 8 345 59 82 85 59 45 38 39 34 24 12 2 3 356 347 336 327 313 299 288 294 289 277
168 180 236 125 158 169 163 179 155 165 177 160 133 196 195 100 72 102 133 152 149 130 104 70 65 61 37 26 22 18 14 2 356 359 351 345 332 323 305 303 307 295 284 277
162 121 291 148 161 155 192 202 155 112 28 96 187 210 27 115 74 95 101 97 96 100 107 72 43 36 25 29 30 19 8 1 357 349 338 329 325 322 309 303 294 285 281 286
212 105 248 317 107 257 190 169 95 13 123 128 244 231 146 147 132 115 119 120 126 118 71 55 55 49 37 31 23 26 16 6 341 334 324 308 312 303 295 300 298 293 294 292
193 117 109 85 237 182 164 146 60 104 121 152 137 258 178 175 162 133 134 142 114 80 81 72 62 43 35 32 28 23 17 5 358 349 337 331 315 318 312 305 299 291 295 294
118 99 122 205 316 310 244 162 145 124 223 132 107 302 30 133 162 140 123 92 92 98 88 68 55 43 33 24 18 11 3 3 3 354 346 336 330 333 323 315 306 305 295 291
159 201 108 63 8 324 243 198 137 97 62 190 115 230 157 145 121 77 96 98 98 95 80 63 45 38 28 19 4 4 10 10 2 355 355 358 357 350 345 334 325 319 306 304
58 80 158 180 199 140 178 175 174 134 115 173 185 145 187 171 136 99 104 107 101 78 61 53 46 52 36 28 18 12 15 12 3 0 2 0 355 346 339 333 331 328 323 314
43 108 67 43 353 168 175 185 187 160 159 150 169 165 165 167 129 121 124 111 89 78 87 89 50 29 23 17 9 9 9 4 358 354 353 350 344 342 339 338 333 326 319 311
333 105 58 32 356 75 102 139 144 138 121 82 115 108 127 104 104 113 112 112 91 66 45 33 27 22 17 11 4 2 357 352 348 347 342 339 339 335 332 329 327 320 313 308
102 127 60 224 331 16 359 208 161 151 144 144 172 160 159 125 126 116 97 72 59 50 43 28 18 22 17 6 356 351 342 337 342 332 329 327 325 325 326 322 321 321 320 313
111 87 61 116 11 122 248 333 160 111 69 89 89 101 108 119 107 102 77 84 66 56 43 23 16 6 12 360 352 338 340 336 330 328 331 333 337 331 328 327 324 319 310 310
59 112 90 147 175 283 348 157 148 164 151 183 132 134 119 135 103 77 87 66 78 71 52 36 18 5 357 351 334 325 320 319 319 338 337 336 332 323 320 321 318 314 312 311
42 48 113 110 141 186 262 233 254 174 181 160 133 139 130 148 139 175 105 114 87 77 52 16 8 2 349 321 304 316 330 339 346 337 326 325 321 320 316 312 312 313 307 302
8 2 126 131 154 287 244 268 299 98 204 153 141 142 131 129 149 139 87 71 57 55 32 15 351 309 280 289 324 344 339 351 331 327 323 323 322 319 312 315 315 313 307 303
170 133 187 80 73 280 188 118 164 185 67 121 117 120 119 118 106 73 83 61 51 42 357 322 310 283 294 333 353 351 352 337 328 326 328 326 318 315 318 315 314 314 311 310
267 182 181 181 217 268 262 9 102 117 117 137 127 130 133 139 135 123 122 117 139 43 294 317 298 297 278 27 20 347 343 336 333 326 322 319 318 318 317 313 312 313 314 313
239 183 185 70 251 231 220 91 114 107 124 125 117 142 152 154 160 152 148 129 112 290 294 263 255 355 358 0 0 347 332 332 324 318 319 316 318 317 312 309 307 311 312 312
203 124 180 269 268 302 262 203 153 115 111 115 116 145 157 145 141 132 119 92 237 242 237 5 20 359 343 341 333 328 327 326 324 321 319 316 316 316 314 307 308 308 305 305
189 180 169 214 210 160 170 155 138 136 157 162 151 142 114 107 128 118 168 194 226 4 11 11 5 342 322 321 311 310 316 323 320 319 319 316 315 316 313 314 311 309 312 316